Tracking 19795 objects as of 19-Jul-2019
HD Live streaming from Space Station
objects crossing your sky now

FENGYUN 1C DEB

Track FENGYUN 1C DEB now!
10-day predictions


NORAD ID: 32418
Int'l Code: 1999-025DAE
Perigee: 768.4 km
Apogee: 1,182.0 km
Inclination: 98.2 °
Period: 104.4 minutes
Semi major axis: 7346 km
RCS: 0.0154 m2 (small)
Launch date: May 10, 1999
Source: People's Republic of China (PRC)
Launch site: Taiyaun Space Center, China (TSC)

Note: This is SATELLITE DEBRIS
aabbcc
Your satellite tracking list
Your tracking list is empty




NASA's NSSDC Master Catalog

Two Line Element Set (TLE):
1 32418U 99025DAE 19199.52273843 -.00000058  00000-0 -16334-4 0  9992
2 32418  98.2274 322.1182 0281470  23.2460 338.1141 13.78825116588509
Source of the keplerian elements: AFSPC